FRS28 EDWX-EDLS

Flight info

Callsign FRS28
Flight time 0h 28m
Altitude 2000
Route DIRECT
Aircraft IMPU/L-V/N

Departure

Time 2026-04-14 14:20
Airport Westerstede-Felde Airfield (EDWX)

Arrival

Time 2026-04-14 14:48
Airport Stadtlohn-Vreden Airfield (EDLS)
Time Latitude Longitude Altitude Speed Heading
2026-04-14 14:15 53.28909 7.93146 37 ft 0 kts 63°
2026-04-14 14:16 53.28920 7.93188 37 ft 6 kts 66°
2026-04-14 14:17 53.28955 7.93318 37 ft 7 kts 65°
2026-04-14 14:17 53.28968 7.93364 38 ft 8 kts 65°
2026-04-14 14:17 53.28987 7.93433 38 ft 1 kts 66°
2026-04-14 14:17 53.28996 7.93470 38 ft 4 kts 86°
2026-04-14 14:18 53.28985 7.93489 38 ft 3 kts 191°
2026-04-14 14:18 53.28979 7.93482 38 ft 0 kts 247°
2026-04-14 14:19 53.28928 7.93300 38 ft 56 kts 246°
2026-04-14 14:20 53.28672 7.92312 330 ft 134 kts 239°
2026-04-14 14:20 53.27645 7.91768 788 ft 184 kts 185°
2026-04-14 14:20 53.26303 7.91682 1256 ft 188 kts 186°
2026-04-14 14:20 53.25034 7.91600 1954 ft 196 kts 186°
2026-04-14 14:21 53.24096 7.91459 1848 ft 212 kts 195°
2026-04-14 14:21 53.22658 7.90815 2086 ft 209 kts 203°
2026-04-14 14:21 53.21381 7.89666 2204 ft 215 kts 212°
2026-04-14 14:21 53.20028 7.88694 2055 ft 206 kts 204°
2026-04-14 14:22 53.18744 7.87781 2000 ft 198 kts 208°
2026-04-14 14:22 53.17474 7.86742 2003 ft 208 kts 209°
2026-04-14 14:22 53.16141 7.85696 1995 ft 215 kts 208°
2026-04-14 14:22 53.14806 7.84601 1977 ft 214 kts 209°
2026-04-14 14:23 53.13486 7.83521 1992 ft 207 kts 209°
2026-04-14 14:23 53.12208 7.82496 1994 ft 205 kts 209°
2026-04-14 14:23 53.10919 7.81487 2004 ft 207 kts 208°
2026-04-14 14:23 53.09620 7.80448 1993 ft 204 kts 208°
2026-04-14 14:24 53.08355 7.79443 1990 ft 203 kts 208°
2026-04-14 14:24 53.07085 7.78411 1987 ft 204 kts 209°
2026-04-14 14:24 53.05799 7.77407 2008 ft 203 kts 208°
2026-04-14 14:24 53.04521 7.76408 1999 ft 202 kts 208°
2026-04-14 14:25 53.03256 7.75406 1996 ft 203 kts 208°
2026-04-14 14:25 53.01967 7.74379 1992 ft 206 kts 208°
2026-04-14 14:25 53.00688 7.73356 1997 ft 206 kts 208°
2026-04-14 14:25 52.99391 7.72332 1996 ft 206 kts 208°
2026-04-14 14:26 52.98100 7.71303 1993 ft 204 kts 208°
2026-04-14 14:26 52.96817 7.70292 1994 ft 206 kts 208°
2026-04-14 14:26 52.95515 7.69259 1990 ft 205 kts 208°
2026-04-14 14:26 52.94234 7.68270 1994 ft 202 kts 208°
2026-04-14 14:27 52.92956 7.67271 2002 ft 202 kts 208°
2026-04-14 14:27 52.91695 7.66291 1997 ft 202 kts 208°
2026-04-14 14:27 52.90400 7.65283 2010 ft 205 kts 208°
2026-04-14 14:27 52.89132 7.64270 1995 ft 203 kts 208°
2026-04-14 14:28 52.87835 7.63260 2009 ft 206 kts 208°
2026-04-14 14:28 52.86549 7.62230 2004 ft 205 kts 208°
2026-04-14 14:28 52.85271 7.61230 1997 ft 204 kts 207°
2026-04-14 14:28 52.83983 7.60249 1997 ft 202 kts 207°
2026-04-14 14:29 52.82709 7.59277 1999 ft 203 kts 208°
2026-04-14 14:29 52.81438 7.58263 2000 ft 203 kts 208°
2026-04-14 14:29 52.80151 7.57272 1997 ft 203 kts 207°
2026-04-14 14:29 52.78868 7.56292 1995 ft 202 kts 207°
2026-04-14 14:30 52.77603 7.55318 2005 ft 202 kts 207°
2026-04-14 14:30 52.76312 7.54330 1998 ft 203 kts 208°
2026-04-14 14:30 52.75040 7.53349 2005 ft 203 kts 207°
2026-04-14 14:30 52.73753 7.52359 2002 ft 203 kts 208°
2026-04-14 14:31 52.72472 7.51378 2005 ft 202 kts 207°
2026-04-14 14:31 52.71199 7.50417 1998 ft 202 kts 207°
2026-04-14 14:31 52.69916 7.49427 2006 ft 202 kts 207°
2026-04-14 14:31 52.68649 7.48468 2016 ft 203 kts 208°
2026-04-14 14:32 52.67355 7.47468 1999 ft 203 kts 207°
2026-04-14 14:32 52.66092 7.46502 1999 ft 202 kts 207°
2026-04-14 14:32 52.64804 7.45541 2012 ft 202 kts 207°
2026-04-14 14:32 52.63536 7.44570 2001 ft 202 kts 209°
2026-04-14 14:33 52.62262 7.43594 2005 ft 201 kts 208°
2026-04-14 14:33 52.60980 7.42648 2016 ft 200 kts 205°
2026-04-14 14:33 52.59701 7.41700 2001 ft 201 kts 207°
2026-04-14 14:33 52.58430 7.40716 2002 ft 201 kts 208°
2026-04-14 14:34 52.55902 7.38760 2004 ft 201 kts 207°
2026-04-14 14:34 52.54612 7.37835 2010 ft 202 kts 205°
2026-04-14 14:34 52.53316 7.36906 2005 ft 203 kts 206°
2026-04-14 14:35 52.52047 7.35940 2003 ft 203 kts 208°
2026-04-14 14:35 52.50763 7.34917 2000 ft 203 kts 208°
2026-04-14 14:35 52.49503 7.33941 2002 ft 201 kts 208°
2026-04-14 14:35 52.48220 7.33017 2002 ft 202 kts 205°
2026-04-14 14:36 52.46937 7.32153 2014 ft 201 kts 204°
2026-04-14 14:36 52.45629 7.31332 2004 ft 198 kts 197°
2026-04-14 14:36 52.44354 7.30599 2002 ft 196 kts 201°
2026-04-14 14:36 52.43090 7.29760 1999 ft 198 kts 202°
2026-04-14 14:37 52.41750 7.28867 1999 ft 213 kts 202°
2026-04-14 14:37 52.40389 7.27964 2008 ft 213 kts 202°
2026-04-14 14:37 52.39025 7.26981 1998 ft 215 kts 210°
2026-04-14 14:37 52.37703 7.25768 2003 ft 216 kts 210°
2026-04-14 14:38 52.36374 7.24683 2004 ft 214 kts 207°
2026-04-14 14:38 52.35027 7.23658 2002 ft 212 kts 207°
2026-04-14 14:38 52.33703 7.22650 2008 ft 211 kts 209°
2026-04-14 14:38 52.32422 7.21464 2016 ft 211 kts 212°
2026-04-14 14:39 52.31155 7.20230 2009 ft 211 kts 213°
2026-04-14 14:39 52.29904 7.19017 2020 ft 210 kts 213°
2026-04-14 14:39 52.28633 7.17778 2011 ft 213 kts 213°
2026-04-14 14:39 52.27359 7.16525 2008 ft 212 kts 213°
2026-04-14 14:40 52.26105 7.15301 2007 ft 212 kts 213°
2026-04-14 14:40 52.24805 7.14106 1949 ft 214 kts 208°
2026-04-14 14:40 52.23461 7.13120 1879 ft 212 kts 205°
2026-04-14 14:40 52.22089 7.12190 1589 ft 212 kts 204°
2026-04-14 14:41 52.20749 7.11322 1460 ft 207 kts 204°
2026-04-14 14:41 52.19410 7.10481 1391 ft 206 kts 203°
2026-04-14 14:41 52.18070 7.09668 1375 ft 206 kts 205°
2026-04-14 14:41 52.16835 7.08528 1436 ft 202 kts 214°
2026-04-14 14:42 52.15613 7.07476 1612 ft 198 kts 206°
2026-04-14 14:42 52.14315 7.06600 1585 ft 203 kts 204°
2026-04-14 14:42 52.13089 7.05737 1429 ft 188 kts 209°
2026-04-14 14:42 52.12089 7.04605 1261 ft 175 kts 222°
2026-04-14 14:43 52.11066 7.03260 1185 ft 198 kts 221°
2026-04-14 14:43 52.09969 7.01840 1360 ft 200 kts 220°
2026-04-14 14:43 52.08866 7.00442 1443 ft 205 kts 219°
2026-04-14 14:43 52.07726 6.99052 1629 ft 203 kts 219°
2026-04-14 14:44 52.06622 6.97659 1880 ft 203 kts 220°
2026-04-14 14:44 52.05607 6.96366 1843 ft 172 kts 219°
2026-04-14 14:44 52.04680 6.95302 1554 ft 157 kts 217°
2026-04-14 14:44 52.03790 6.94497 1497 ft 135 kts 199°
2026-04-14 14:45 52.02975 6.93888 1348 ft 140 kts 219°
2026-04-14 14:45 52.02217 6.92813 1154 ft 140 kts 229°
2026-04-14 14:45 52.01593 6.91703 1160 ft 126 kts 228°
2026-04-14 14:45 52.01006 6.90854 1318 ft 104 kts 219°
2026-04-14 14:46 52.00395 6.90322 1133 ft 88 kts 207°
2026-04-14 14:46 51.99859 6.89958 1004 ft 80 kts 208°
2026-04-14 14:46 51.99351 6.89584 804 ft 85 kts 210°
2026-04-14 14:46 51.98904 6.89034 749 ft 77 kts 250°
2026-04-14 14:47 51.98892 6.88150 604 ft 85 kts 276°
2026-04-14 14:47 51.99025 6.87259 493 ft 78 kts 283°
2026-04-14 14:47 51.99162 6.86463 380 ft 67 kts 282°
2026-04-14 14:47 51.99284 6.85752 235 ft 62 kts 282°
2026-04-14 14:48 51.99406 6.85034 170 ft 62 kts 283°
2026-04-14 14:48 51.99500 6.84466 161 ft 45 kts 286°
2026-04-14 14:48 51.99565 6.84142 159 ft 17 kts 289°
2026-04-14 14:48 51.99607 6.84050 158 ft 6 kts 14°
2026-04-14 14:49 51.99624 6.84071 159 ft 3 kts 72°
2026-04-14 14:49 51.99610 6.84169 159 ft 15 kts 106°
2026-04-14 14:49 51.99580 6.84341 157 ft 12 kts 106°
2026-04-14 14:49 51.99560 6.84455 159 ft 7 kts 106°
2026-04-14 14:50 51.99547 6.84530 159 ft 7 kts 97°
2026-04-14 14:50 51.99571 6.84598 159 ft 7 kts 49°
2026-04-14 14:50 51.99590 6.84647 159 ft 6 kts 70°
2026-04-14 14:50 51.99590 6.84700 159 ft 5 kts 105°
2026-04-14 14:51 51.99589 6.84708 159 ft 0 kts 107°